{"data":{"norad_id":63318,"epoch":"2026-09-20T18:47:50.376480Z","epoch_age_seconds":134382,"freshness":"FRESH","line1":"1 63318U 25057M   26263.78322195  .00131678  00000+0  10115-2 0  9991","line2":"2 63318  43.0021 168.3107 0002849 316.3296  43.7346 15.70885416 87896","mean_motion":15.70885416,"eccentricity":0.0002849,"inclination_deg":43.0021,"raan_deg":168.3107,"arg_perigee_deg":316.3296,"mean_anomaly_deg":43.7346,"bstar":0.0010115,"rev_number":8789,"period_min":91.668048180543,"perigee_km":354.44659757512,"apogee_km":358.28391696132,"semimajor_km":6734.5022572682,"source":"CELESTRAK","updated_at":"2026-09-21T09:00:34.969192Z"}}